Theta_e
322 325 328 327 327 335 340 341 343 344 343 343 345 344 343 343 342 343 342 340 338 340 339 338 337 335 332 329 325 322 319 317
325 328 331 330 331 338 341 342 341 341 344 344 343 344 344 342 342 342 340 341 340 338 338 336 335 333 330 328 324 320 318 316
325 328 332 340 341 339 342 342 342 341 341 342 343 342 342 341 341 342 342 341 340 339 338 334 330 328 326 324 322 319 316 316
328 327 332 337 342 343 343 343 343 342 341 341 341 340 338 336 336 338 339 337 337 336 334 332 326 325 324 321 319 317 316 318
329 328 329 330 332 344 345 344 343 342 342 341 340 339 332 334 332 333 333 332 333 333 332 328 325 323 320 317 315 314 318 317
327 327 328 328 328 337 345 344 343 342 341 341 340 338 336 334 330 327 326 326 327 327 325 323 321 317 314 315 315 315 314 314
327 328 328 327 325 327 339 344 343 341 341 340 338 336 333 327 322 321 319 319 318 318 318 318 316 315 315 315 314 314 315 314
327 327 325 326 325 326 330 331 334 337 337 336 335 334 331 327 320 316 313 313 313 313 314 314 316 315 315 314 313 313 314 313
328 326 326 326 325 324 325 326 325 326 328 328 327 324 322 321 318 315 312 309 310 311 313 313 311 313 312 312 313 310 310 310
326 326 326 326 325 324 324 322 322 322 322 323 322 321 320 316 311 310 309 310 310 309 311 311 311 310 311 309 308 308 307 307
325 324 326 328 327 325 324 323 321 319 319 318 317 316 314 313 310 309 309 308 308 308 309 307 306 306 305 305 304 304 303 303
324 324 327 328 328 326 324 321 319 318 316 314 313 312 311 310 309 309 309 309 309 307 306 305 305 303 303 303 303 302 301 301
323 323 326 326 327 327 324 321 319 317 316 313 312 311 310 309 308 309 308 308 307 306 304 304 302 301 300 300 300 299 299 299
323 323 325 325 324 323 322 320 318 317 315 313 311 310 309 308 309 309 308 307 305 304 303 302 301 300 300 299 299 298 298 297
323 324 322 323 323 322 321 320 319 316 315 313 311 310 310 309 308 308 306 305 304 303 303 302 301 300 299 297 296 296 295 295
320 319 316 318 320 320 320 320 319 316 314 313 311 311 310 309 308 308 306 306 304 304 302 300 299 298 297 296 296 295 294 294
318 316 314 314 312 313 313 315 317 319 315 313 312 311 310 309 308 307 307 306 305 304 301 299 298 297 295 296 297 296 295 294
306 305 308 310 311 311 311 311 312 314 318 316 313 311 310 309 308 307 306 306 305 302 300 299 297 296 298 298 298 296 294 294
304 302 302 303 304 306 309 310 310 310 311 316 315 312 311 311 308 307 306 304 302 301 299 298 298 299 299 298 296 295 294 293
Wind_Speed
20 19 8 9 7 25 41 43 41 40 35 35 27 25 27 27 29 32 30 30 32 29 24 28 31 30 28 25 20 18 19 20
5 17 15 12 11 24 33 36 38 39 34 32 29 26 24 25 25 27 29 30 34 32 27 26 28 30 29 26 21 21 21 24
8 17 20 20 16 16 34 35 39 37 33 29 25 27 22 23 21 24 26 26 25 26 25 25 26 26 23 22 26 26 24 31
8 9 18 19 21 14 30 36 39 37 35 32 23 20 19 19 19 20 20 18 20 21 21 23 25 24 25 25 25 31 22 23
7 8 14 17 17 16 21 33 35 35 35 35 34 31 22 18 22 20 17 13 16 19 21 24 25 18 17 15 9 5 13 13
8 9 13 11 11 12 12 24 30 31 32 32 30 28 27 25 26 23 21 21 19 18 20 22 21 19 16 13 8 3 10 5
8 11 9 8 7 4 8 15 19 23 26 29 32 32 29 26 26 25 22 21 20 20 21 20 20 18 14 11 10 11 12 16
7 7 7 8 6 4 2 6 11 16 19 21 23 26 27 30 29 29 26 25 25 25 23 20 19 18 19 18 14 20 20 17
3 4 10 12 8 4 2 4 5 8 12 16 18 18 22 23 26 26 28 27 27 25 24 24 19 22 17 17 14 14 16 18
7 6 15 15 13 10 7 6 7 9 11 13 14 16 17 19 19 22 23 26 25 24 23 22 20 17 21 17 19 20 18 16
8 7 11 16 16 15 12 10 10 10 10 12 15 16 18 19 21 25 28 27 28 25 24 22 19 18 19 20 19 17 19 16
9 8 16 15 20 17 15 13 12 9 10 12 14 15 18 21 25 27 26 30 29 27 25 23 22 24 21 19 19 21 19 17
5 8 15 13 24 22 22 20 16 14 12 15 17 18 20 22 25 26 28 27 26 27 26 23 24 22 21 21 22 21 21 18
7 3 4 14 19 23 24 24 20 19 17 17 19 19 21 23 25 25 25 25 25 25 25 25 27 25 22 19 19 20 18 18
5 7 6 10 10 12 16 25 25 26 26 26 24 23 23 22 22 21 23 24 22 25 24 24 25 24 24 24 22 20 20 19
8 7 7 9 7 7 6 8 16 25 30 29 29 28 26 26 27 25 24 26 25 25 25 24 23 24 25 25 22 22 22 20
10 9 8 9 10 11 9 8 5 5 19 26 32 35 31 30 29 29 31 30 28 27 26 26 23 22 24 20 21 23 23 24
11 10 8 11 11 8 5 4 6 3 5 15 24 25 28 29 28 32 34 35 31 32 31 29 26 25 24 24 24 24 23 20
5 5 10 13 13 15 17 18 15 10 9 8 19 27 28 28 32 33 33 34 35 34 36 34 31 28 28 28 24 23 21 18
Wind_Direction
254 243 141 194 187 187 184 184 185 185 186 194 190 194 208 213 217 217 217 219 224 226 220 208 197 198 193 193 190 192 188 182
180 123 105 107 107 174 173 177 187 186 180 179 182 186 200 211 218 224 225 221 223 220 213 201 202 198 199 196 197 195 197 186
81 82 74 68 58 166 173 176 180 182 184 186 182 188 190 193 191 191 196 205 206 211 210 196 196 195 192 197 197 195 197 185
71 61 63 62 53 130 170 174 177 181 184 186 184 175 172 174 176 178 185 192 196 200 198 194 189 188 189 190 197 197 192 172
77 63 54 47 43 56 169 174 176 186 191 189 186 178 165 186 187 187 181 195 201 206 204 196 190 181 172 164 167 147 150 139
91 82 79 53 39 56 118 167 177 186 194 198 196 192 193 189 193 192 191 195 201 202 197 191 176 155 128 123 109 138 165 121
111 111 101 73 38 57 113 170 181 190 194 200 202 200 189 185 187 188 190 189 185 179 173 168 156 143 143 149 163 142 162 136
141 144 134 123 100 84 129 159 168 195 207 209 212 212 205 202 194 190 182 173 168 164 162 161 163 170 171 167 180 165 182 177
102 166 144 141 122 120 174 198 192 193 203 209 212 209 200 199 197 195 186 172 165 167 169 167 172 162 168 177 167 191 173 168
158 130 146 150 156 163 177 193 201 202 203 203 202 204 202 195 191 181 175 168 170 174 165 166 166 184 171 194 184 185 201 184
175 161 156 171 174 165 166 188 201 197 200 198 193 188 191 186 181 176 173 174 168 174 168 178 169 172 180 180 173 174 196 190
186 170 178 182 169 167 167 161 162 180 194 189 184 180 181 180 178 176 176 174 173 175 177 179 170 178 172 167 170 178 181 180
235 177 168 149 148 155 160 162 165 174 184 178 174 182 182 181 178 178 177 178 178 179 180 175 176 173 167 170 171 172 178 179
46 96 127 139 147 155 161 169 173 175 180 178 178 179 176 175 180 180 183 181 184 182 179 180 179 175 172 177 176 175 173 174
128 111 89 88 127 143 171 174 187 183 184 186 186 182 181 188 186 186 185 187 184 185 184 181 184 175 171 173 170 168 169 175
49 62 59 74 88 92 80 95 190 192 184 182 186 188 182 185 185 182 187 190 188 189 188 181 186 180 179 178 171 173 170 167
47 45 38 47 62 69 63 50 58 171 202 190 190 190 185 187 185 184 187 195 190 192 187 187 185 187 182 183 174 173 170 171
30 22 11 358 2 344 312 311 304 33 237 203 195 190 171 187 194 194 194 196 192 188 189 189 186 184 184 183 179 178 179 186
358 336 333 330 327 320 306 295 281 272 265 252 216 183 176 190 201 201 203 197 193 193 194 186 183 182 184 180 183 184 181 188